Regional Weather Roundup
Issued by NWS New Orleans/Baton Rouge, LA

Home | Current Version | Previous Version | Graphics & Text | Print | Product List | Glossary On
Versions: 1 2 3 4 5 6 7 8 9 10 11 12 13 14 15 16 17 18 19 20 21 22 23 24 25 26 27 28 29 30 31 32 33 34 35 36 37 38 39 40 41 42 43 44 45 46 47 48 49 50
652
ASUS44 KLIX 020010
RWRLIX
NEW ORLEANS REGIONAL WEATHER ROUNDUP
NATIONAL WEATHER SERVICE NEW ORLEANS LA
700 PM CDT WED OCT 01 2014

NOTE: "FAIR" INDICATES FEW OR NO CLOUDS BELOW 12,000 FEET WITH NO
      SIGNIFICANT WEATHER AND/OR OBSTRUCTIONS TO VISIBILITY.
      SKY/WX - SKY CONDITION AND SIGNIFICANT WEATHER.
      TMP - AIR TEMPERATURE.     DP    - DEWPOINT TEMPERATURE.
      RH  - RELATIVE HUMIDITY.   PRES  - PRESSURE.
      HI  - HEAT INDEX.          WCI   - WIND CHILL INDEX.

*  THESE STATIONS ARE NOT NWS OR FAA STATIONS AND ARE NOT UNDER
   NWS QUALITY CONTROL.

LAZ038-040-048-061>063-065>067-069-020100-
SOUTHEAST LOUISIANA

CITY           SKY/WX    TMP DP  RH WIND       PRES   REMARKS
N.O. AUDUBON     N/A     82  78  86 MISG        N/A
6HR MIN TEMP:  81; 6HR MAX TEMP:  85;

N.O. INTL ARPT CLOUDY    81  74  79 SE10      29.90R
6HR MIN TEMP:  80; 6HR MAX TEMP:  85;

N.O. LAKEFRONT MOCLDY    81  74  79 SE13      29.90S
6HR MIN TEMP:  81; 6HR MAX TEMP:  84; 6HR PCP: TRACE;

N.O. DOWNTOWN* CLOUDY    81  72  74 S6        29.91S
6HR MIN TEMP:  79; 6HR MAX TEMP:  84;

SLIDELL        MOCLDY    79  73  82 E3        29.91R
6HR MIN TEMP:  79; 6HR MAX TEMP:  84;

BATON ROUGE    MOCLDY    78  73  84 E8        29.88S
6HR MIN TEMP:  78; 6HR MAX TEMP:  87;

BOOTHVILLE     MOCLDY    79  76  90 SE7       29.92R
6HR MIN TEMP:  78; 6HR MAX TEMP:  82; 6HR PCP: TRACE;

BELLE CHASSE   CLOUDY    81  74  79 SE8       29.90R
6HR MIN TEMP:  79; 6HR MAX TEMP:  85;

BOGALUSA*        N/A     80  72  75 S5        29.93R
6HR MIN TEMP:  80; 6HR MAX TEMP:  86;

GALLIANO*      NOT AVBL
NEW ROADS*     CLOUDY    81  73  77 SE7       29.88R
6HR MIN TEMP:  81; 6HR MAX TEMP:  86;

GONZALES*        N/A     77  77 100 CALM      29.88R
6HR MIN TEMP:  76; 6HR MAX TEMP:  85; 6HR PCP:  0.16;

HAMMOND*       MOCLDY    79  72  78 SE6       29.91F
HOUMA*         MOCLDY   N/A N/A N/A SE7       29.89R
PORT FOURCHON* MOCLDY    81  75  83 CALM      29.93R

$$

MSZ070-080>082-020100-
SOUTHERN MISSISSIPPI

CITY           SKY/WX    TMP DP  RH WIND       PRES   REMARKS
MCCOMB         MOCLDY    78  71  79 SE7       29.91R
6HR MIN TEMP:  78; 6HR MAX TEMP:  86;

GULFPORT       MOCLDY    79  74  84 SE10      29.92R
6HR MIN TEMP:  79; 6HR MAX TEMP:  82; 6HR PCP: TRACE;

BILOXI         PTCLDY    80  74  83 SE7       29.93R
6HR MIN TEMP:  80; 6HR MAX TEMP:  82; 6HR PCP: TRACE;

PASCAGOULA     MOCLDY    76  73  91 S3        29.93R
6HR MIN TEMP:  76; 6HR MAX TEMP:  84;

STENNIS ARPT*  MOCLDY    79  72  78 SE6       29.92R

$$

COASTAL OBSERVATIONS
LAKE AND NEARSHORE STATIONS

STATION/POSITION TIME  TEMP    WIND        PRES    WAVE
                       AIR SEA DIR/SP/G            HT/PER
                 (UTC) (F)     (DEG/KT/KT) (MB)    (FT/S)
PASCAGOULA       0000   80     130/  8/ 10 1013.0
WAVELAND YACHT   0000   80     140/ 10/ 12 1012.5
GRAND ISLE       0000   80 81  150/  4/  6 1013.3
SOUTHWEST PASS   0000   81 85  120/  5/  6 1013.0
NEW CANAL        0000   81 78  150/  5/ 10 1012.8
SHELL BEACH      0000   80 76  120/  9/ 11 1012.7

OFFSHORE STATIONS

STATION/POSITION TIME  TEMP    WIND        PRES    WAVE
                       AIR SEA DIR/SP/G            HT/PER
                 (UTC) (F)     (DEG/KT/KT) (MB)    (FT/S)

$$




USA.gov is the U.S. government's official web portal to all federal, state and local government web resources and services.